Dauntless Aviation
Airports Europe France
LFBD
BOD

Merignac

Bordeaux, FRANCE

Airport Info
Suggest Updated Information for this Airport

Location

Latitude / Longitude: 44°49'41"N / 0°42'56"W
  44°49.698'N / 0°42.936'W
  44.8283 / -0.7156

Nearby radio navigation aids

BD BORDEAUX NDB. 228.2° 9.2nm from BD to field.
BDX BORDEAUX VORTAC on field.
BE BORDEAUX NDB. 262.1° 13.8nm from BE to field.
NB BORDEAUX NDB. 202.9° 20.4nm from NB to field.

Runway Information

Runway 05 /23

Dimensions: 10171 x 148 ft.
Surface: ASP
 
Runway 05
Runway 23
Latitude: 44.819103 44.838694
Longitude: -0.728983 -0.701
Elevation: 160 ft. 160 ft.
Runway true heading: 42.9 222.9
 

Runway 11 /29

Dimensions: 7923 x 148 ft.
Surface: ASP
 
Runway 11
Runway 29
Latitude: 44.831567 44.825411
Longitude: -0.729242 -0.699897
Elevation: 153 ft. 153 ft.
Runway true heading: 103.9 283.9
 

Instrument Procedures

  Aerodrome Chart

Departure Procedures

  Arrival and Departure Chart

IAPs (Instrument Approach Procedures)

  Visual Approch Chart
  Visual Approach Chart - Helicopter
Satellite photo at:
Airport distance calculator
From:
Weather Reports

METAR

LFBD

LFBD 301400Z AUTO 27016KT 9999 FEW024 SCT035 BKN049 16/12 Q1016 TEMPO 4000 SHRA BKN015TCU FEW020CB
LFBC
25.4nm S
LFBC 301400Z AUTO 28014KT 250V310 9999 SCT022 SCT035 BKN084 18/12 Q1017

TAF

LFBD
TAF LFBD 301100Z 3012/3118 28012KT 9999 BKN030 TEMPO 3012/3015 3000 RA BKN015 FEW020CB TEMPO 3015/3024 4000 SHRA BKN015TCU FEW020CB TEMPO 3100/3115 3000 SHRA BKN012 BKN015TCU TX21/3113Z TN13/3106Z
LFBC
25.4nm S
TAF LFBC 301100Z 3012/3112 27010KT 9999 BKN020 TEMPO 3012/3020 4000 SHRA BKN015 BKN020TCU BECMG 3020/3022 4000 RA BKN010 BKN015 BECMG 3101/3103 7000 NSW BKN005 BKN015 TEMPO 3103/3110 4000 SHRA BKN005 BKN015TCU BECMG 3110/3112 BKN015
Safelog

 

Dauntless Aviation

© 2007-2016 Dauntless Aviation, all rights reserved
Information provided via PilotNav comes from a variety of official and unofficial data sources. As errors are possible, do not use PilotNav for primary flight planning purposes. Verify any information that you receive via PilotNav with current and canonical charts and other official documents. The material in this database is subject to database copyrights held by Dauntless Aviation and may not be copied without the express permission of Dauntless Aviation - licenses for use of part of all of this data are available for purchase; enquire via the Dauntless Aviation helpdesk. A number of mechanisms and markers exist in the database to protect against and identify infringement / copyright. Automated queries against this website are stictly prohibited, and all activity is logged and analyzed.